Year,Month,Day,Hour,Minute,Value (Times are PST for temperature in C)
2018,08,16,00,00,15.00
2018,08,16,00,01,15.00
2018,08,16,00,02,15.00
2018,08,16,00,03,14.90
2018,08,16,00,04,14.90
2018,08,16,00,05,14.90
2018,08,16,00,06,14.90
2018,08,16,00,07,14.90
2018,08,16,00,08,14.80
2018,08,16,00,09,14.80
2018,08,16,00,10,14.80
2018,08,16,00,11,14.80
2018,08,16,00,12,14.80
2018,08,16,00,13,14.80
2018,08,16,00,14,14.70
2018,08,16,00,15,14.70
2018,08,16,00,16,14.70
2018,08,16,00,17,14.70
2018,08,16,00,18,14.70
2018,08,16,00,19,14.70
2018,08,16,00,20,14.70
2018,08,16,00,21,14.60
2018,08,16,00,22,14.60
2018,08,16,00,23,14.60
2018,08,16,00,24,14.60
2018,08,16,00,25,14.60
2018,08,16,00,26,14.60
2018,08,16,00,27,14.60
2018,08,16,00,28,14.50
2018,08,16,00,29,14.60
2018,08,16,00,30,14.50
2018,08,16,00,31,14.50
2018,08,16,00,32,14.50
2018,08,16,00,33,14.50
2018,08,16,00,34,14.50
2018,08,16,00,35,14.50
2018,08,16,00,36,14.50
2018,08,16,00,37,14.50
2018,08,16,00,38,14.50
2018,08,16,00,39,14.50
2018,08,16,00,40,14.40
2018,08,16,00,41,14.40
2018,08,16,00,42,14.40
2018,08,16,00,43,14.40
2018,08,16,00,44,14.40
2018,08,16,00,45,14.30
2018,08,16,00,46,14.30
2018,08,16,00,47,14.30
2018,08,16,00,48,14.30
2018,08,16,00,49,14.30
2018,08,16,00,50,14.30
2018,08,16,00,51,14.30
2018,08,16,00,52,14.30
2018,08,16,00,53,14.30
2018,08,16,00,54,14.30
2018,08,16,00,55,14.30
2018,08,16,00,56,14.20
2018,08,16,00,57,14.20
2018,08,16,00,58,14.20
2018,08,16,00,59,14.20
2018,08,16,01,00,14.20
2018,08,16,01,01,14.20
2018,08,16,01,02,14.20
2018,08,16,01,03,14.20
2018,08,16,01,04,14.10
2018,08,16,01,05,14.10
2018,08,16,01,06,14.10
2018,08,16,01,07,14.10
2018,08,16,01,08,14.10
2018,08,16,01,09,14.20
2018,08,16,01,10,14.20
2018,08,16,01,11,14.20
2018,08,16,01,12,14.20
2018,08,16,01,13,14.20
2018,08,16,01,14,14.20
2018,08,16,01,15,14.20
2018,08,16,01,16,14.20
2018,08,16,01,17,14.20
2018,08,16,01,18,14.20
2018,08,16,01,19,14.20
2018,08,16,01,20,14.20
2018,08,16,01,21,14.20
2018,08,16,01,22,14.20
2018,08,16,01,23,14.20
2018,08,16,01,24,14.20
2018,08,16,01,25,14.20
2018,08,16,01,26,14.20
2018,08,16,01,27,14.20
2018,08,16,01,28,14.20
2018,08,16,01,29,14.20
2018,08,16,01,30,14.20
2018,08,16,01,31,14.20
2018,08,16,01,32,14.30
2018,08,16,01,33,14.30
2018,08,16,01,34,14.30
2018,08,16,01,35,14.30
2018,08,16,01,36,14.30
2018,08,16,01,37,14.30
2018,08,16,01,38,14.30
2018,08,16,01,39,14.30
2018,08,16,01,40,14.30
2018,08,16,01,41,14.30
2018,08,16,01,42,14.20
2018,08,16,01,43,14.20
2018,08,16,01,44,14.20
2018,08,16,01,45,14.20
2018,08,16,01,46,14.20
2018,08,16,01,47,14.20
2018,08,16,01,48,14.20
2018,08,16,01,49,14.20
2018,08,16,01,50,14.20
2018,08,16,01,51,14.20
2018,08,16,01,52,14.20
2018,08,16,01,53,14.10
2018,08,16,01,54,14.10
2018,08,16,01,55,14.10
2018,08,16,01,56,14.10
2018,08,16,01,57,14.10
2018,08,16,01,58,14.10
2018,08,16,01,59,14.10
2018,08,16,02,00,14.00
2018,08,16,02,01,14.00
2018,08,16,02,02,14.00
2018,08,16,02,03,14.00
2018,08,16,02,04,13.90
2018,08,16,02,05,13.90
2018,08,16,02,06,13.90
2018,08,16,02,07,13.90
2018,08,16,02,08,13.90
2018,08,16,02,09,13.90
2018,08,16,02,10,13.90
2018,08,16,02,11,13.90
2018,08,16,02,12,13.90
2018,08,16,02,13,13.90
2018,08,16,02,14,13.90
2018,08,16,02,15,13.90
2018,08,16,02,16,13.90
2018,08,16,02,17,13.90
2018,08,16,02,18,13.80
2018,08,16,02,19,13.80
2018,08,16,02,20,13.80
2018,08,16,02,21,13.80
2018,08,16,02,22,13.80
2018,08,16,02,23,13.80
2018,08,16,02,24,13.80
2018,08,16,02,25,13.80
2018,08,16,02,26,13.70
2018,08,16,02,27,13.70
2018,08,16,02,28,13.70
2018,08,16,02,29,13.70
2018,08,16,02,30,13.70
2018,08,16,02,31,13.70
2018,08,16,02,32,13.70
2018,08,16,02,33,13.70
2018,08,16,02,34,13.70
2018,08,16,02,35,13.70
2018,08,16,02,36,13.60
2018,08,16,02,37,13.60
2018,08,16,02,38,13.60
2018,08,16,02,39,13.60
2018,08,16,02,40,13.60
2018,08,16,02,41,13.60
2018,08,16,02,42,13.60
2018,08,16,02,43,13.60
2018,08,16,02,44,13.60
2018,08,16,02,45,13.60
2018,08,16,02,46,13.60
2018,08,16,02,47,13.60
2018,08,16,02,48,13.60
2018,08,16,02,49,13.60
2018,08,16,02,50,13.60
2018,08,16,02,51,13.60
2018,08,16,02,52,13.50
2018,08,16,02,53,13.50
2018,08,16,02,54,13.50
2018,08,16,02,55,13.50
2018,08,16,02,56,13.40
2018,08,16,02,57,13.40
2018,08,16,02,58,13.40
2018,08,16,02,59,13.40
2018,08,16,03,00,13.40
2018,08,16,03,01,13.40
2018,08,16,03,02,13.40
2018,08,16,03,03,13.30
2018,08,16,03,04,13.30
2018,08,16,03,05,13.30
2018,08,16,03,06,13.30
2018,08,16,03,07,13.30
2018,08,16,03,08,13.30
2018,08,16,03,09,13.20
2018,08,16,03,10,13.20
2018,08,16,03,11,13.20
2018,08,16,03,12,13.20
2018,08,16,03,13,13.20
2018,08,16,03,14,13.20
2018,08,16,03,15,13.20
2018,08,16,03,16,13.20
2018,08,16,03,17,13.10
2018,08,16,03,18,13.10
2018,08,16,03,19,13.10
2018,08,16,03,20,13.10
2018,08,16,03,21,13.10
2018,08,16,03,22,13.10
2018,08,16,03,23,13.10
2018,08,16,03,24,13.10
2018,08,16,03,25,13.10
2018,08,16,03,26,13.00
2018,08,16,03,27,13.00
2018,08,16,03,28,13.00
2018,08,16,03,29,13.00
2018,08,16,03,30,13.00
2018,08,16,03,31,13.00
2018,08,16,03,32,13.00
2018,08,16,03,33,13.00
2018,08,16,03,34,13.00
2018,08,16,03,35,13.00
2018,08,16,03,36,12.90
2018,08,16,03,37,12.90
2018,08,16,03,38,12.90
2018,08,16,03,39,12.90
2018,08,16,03,40,12.90
2018,08,16,03,41,12.90
2018,08,16,03,42,12.80
2018,08,16,03,43,12.80
2018,08,16,03,44,12.80
2018,08,16,03,45,12.80
2018,08,16,03,46,12.80
2018,08,16,03,47,12.80
2018,08,16,03,48,12.80
2018,08,16,03,49,12.80
2018,08,16,03,50,12.80
2018,08,16,03,51,12.80
2018,08,16,03,52,12.80
2018,08,16,03,53,12.80
2018,08,16,03,54,12.80
2018,08,16,03,55,12.80
2018,08,16,03,56,12.80
2018,08,16,03,57,12.80
2018,08,16,03,58,12.80
2018,08,16,03,59,12.80
2018,08,16,04,00,12.80
2018,08,16,04,01,12.80
2018,08,16,04,02,12.70
2018,08,16,04,03,12.70
2018,08,16,04,04,12.70
2018,08,16,04,05,12.70
2018,08,16,04,06,12.70
2018,08,16,04,07,12.70
2018,08,16,04,08,12.70
2018,08,16,04,09,12.70
2018,08,16,04,10,12.70
2018,08,16,04,11,12.70
2018,08,16,04,12,12.60
2018,08,16,04,13,12.60
2018,08,16,04,14,12.60
2018,08,16,04,15,12.60
2018,08,16,04,16,12.60
2018,08,16,04,17,12.60
2018,08,16,04,18,12.60
2018,08,16,04,19,12.60
2018,08,16,04,20,12.60
2018,08,16,04,21,12.60
2018,08,16,04,22,12.50
2018,08,16,04,23,12.50
2018,08,16,04,24,12.50
2018,08,16,04,25,12.50
2018,08,16,04,26,12.50
2018,08,16,04,27,12.50
2018,08,16,04,28,12.50
2018,08,16,04,29,12.50
2018,08,16,04,30,12.50
2018,08,16,04,31,12.50
2018,08,16,04,32,12.50
2018,08,16,04,33,12.50
2018,08,16,04,34,12.50
2018,08,16,04,35,12.50
2018,08,16,04,36,12.50
2018,08,16,04,37,12.50
2018,08,16,04,38,12.50
2018,08,16,04,39,12.50
2018,08,16,04,40,12.40
2018,08,16,04,41,12.40
2018,08,16,04,42,12.50
2018,08,16,04,43,12.40
2018,08,16,04,44,12.40
2018,08,16,04,45,12.40
2018,08,16,04,46,12.40
2018,08,16,04,47,12.40
2018,08,16,04,48,12.40
2018,08,16,04,49,12.40
2018,08,16,04,50,12.40
2018,08,16,04,51,12.40
2018,08,16,04,52,12.40
2018,08,16,04,53,12.40
2018,08,16,04,54,12.40
2018,08,16,04,55,12.40
2018,08,16,04,56,12.40
2018,08,16,04,57,12.40
2018,08,16,04,58,12.40
2018,08,16,04,59,12.30
2018,08,16,05,00,12.30
2018,08,16,05,01,12.30
2018,08,16,05,02,12.30
2018,08,16,05,03,12.30
2018,08,16,05,04,12.30
2018,08,16,05,05,12.30
2018,08,16,05,06,12.30
2018,08,16,05,07,12.30
2018,08,16,05,08,12.30
2018,08,16,05,09,12.30
2018,08,16,05,10,12.30
2018,08,16,05,11,12.20
2018,08,16,05,12,12.20
2018,08,16,05,13,12.20
2018,08,16,05,14,12.20
2018,08,16,05,15,12.20
2018,08,16,05,16,12.20
2018,08,16,05,17,12.20
2018,08,16,05,18,12.20
2018,08,16,05,19,12.20
2018,08,16,05,20,12.20
2018,08,16,05,21,12.20
2018,08,16,05,22,12.20
2018,08,16,05,23,12.20
2018,08,16,05,24,12.20
2018,08,16,05,25,12.20
2018,08,16,05,26,12.20
2018,08,16,05,27,12.20
2018,08,16,05,28,12.20
2018,08,16,05,29,12.10
2018,08,16,05,30,12.10
2018,08,16,05,31,12.10
2018,08,16,05,32,12.10
2018,08,16,05,33,12.10
2018,08,16,05,34,12.10
2018,08,16,05,35,12.10
2018,08,16,05,36,12.10
2018,08,16,05,37,12.10
2018,08,16,05,38,12.10
2018,08,16,05,39,12.10
2018,08,16,05,40,12.10
2018,08,16,05,41,12.10
2018,08,16,05,42,12.00
2018,08,16,05,43,12.00
2018,08,16,05,44,12.00
2018,08,16,05,45,12.00
2018,08,16,05,46,12.10
2018,08,16,05,47,12.10
2018,08,16,05,48,12.10
2018,08,16,05,49,12.10
2018,08,16,05,50,12.10
2018,08,16,05,51,12.00
2018,08,16,05,52,12.00
2018,08,16,05,53,12.00
2018,08,16,05,54,12.00
2018,08,16,05,55,12.00
2018,08,16,05,56,12.00
2018,08,16,05,57,11.90
2018,08,16,05,58,11.90
2018,08,16,05,59,11.90
2018,08,16,06,00,11.90
2018,08,16,06,01,11.90
2018,08,16,06,02,11.90
2018,08,16,06,03,11.90
2018,08,16,06,04,11.90
2018,08,16,06,05,11.90
2018,08,16,06,06,11.90
2018,08,16,06,07,11.90
2018,08,16,06,08,11.90
2018,08,16,06,09,11.90
2018,08,16,06,10,11.90
2018,08,16,06,11,11.90
2018,08,16,06,12,11.90
2018,08,16,06,13,11.90
2018,08,16,06,14,11.90
2018,08,16,06,15,11.90
2018,08,16,06,16,11.90
2018,08,16,06,17,11.90
2018,08,16,06,18,11.90
2018,08,16,06,19,11.90
2018,08,16,06,20,11.90
2018,08,16,06,21,11.80
2018,08,16,06,22,11.80
2018,08,16,06,23,11.80
2018,08,16,06,24,11.80
2018,08,16,06,25,11.80
2018,08,16,06,26,11.80
2018,08,16,06,27,11.80
2018,08,16,06,28,11.80
2018,08,16,06,29,11.80
2018,08,16,06,30,11.80
2018,08,16,06,31,11.80
2018,08,16,06,32,11.80
2018,08,16,06,33,11.80
2018,08,16,06,34,11.80
2018,08,16,06,35,11.80
2018,08,16,06,36,11.80
2018,08,16,06,37,11.80
2018,08,16,06,38,11.80
2018,08,16,06,39,11.80
2018,08,16,06,40,11.80
2018,08,16,06,41,11.80
2018,08,16,06,42,11.80
2018,08,16,06,43,11.80
2018,08,16,06,44,11.80
2018,08,16,06,45,11.90
2018,08,16,06,46,11.90
2018,08,16,06,47,11.90
2018,08,16,06,48,11.90
2018,08,16,06,49,11.90
2018,08,16,06,50,11.90
2018,08,16,06,51,11.90
2018,08,16,06,52,11.90
2018,08,16,06,53,11.90
2018,08,16,06,54,11.90
2018,08,16,06,55,11.90
2018,08,16,06,56,11.90
2018,08,16,06,57,11.90
2018,08,16,06,58,12.00
2018,08,16,06,59,12.00
2018,08,16,07,00,12.00
2018,08,16,07,01,12.00
2018,08,16,07,02,12.00
2018,08,16,07,03,12.10
2018,08,16,07,04,12.10
2018,08,16,07,05,12.10
2018,08,16,07,06,12.10
2018,08,16,07,07,12.10
2018,08,16,07,08,12.20
2018,08,16,07,09,12.20
2018,08,16,07,10,12.30
2018,08,16,07,11,12.30
2018,08,16,07,12,12.30
2018,08,16,07,13,12.30
2018,08,16,07,14,12.30
2018,08,16,07,15,12.40
2018,08,16,07,16,12.40
2018,08,16,07,17,12.40
2018,08,16,07,18,12.50
2018,08,16,07,19,12.50
2018,08,16,07,20,12.60
2018,08,16,07,21,12.60
2018,08,16,07,22,12.70
2018,08,16,07,23,12.70
2018,08,16,07,24,12.80
2018,08,16,07,25,12.80
2018,08,16,07,26,12.80
2018,08,16,07,27,12.90
2018,08,16,07,28,12.90
2018,08,16,07,29,13.00
2018,08,16,07,30,13.00
2018,08,16,07,31,13.00
2018,08,16,07,32,13.10
2018,08,16,07,33,13.20
2018,08,16,07,34,13.20
2018,08,16,07,35,13.20
2018,08,16,07,36,13.30
2018,08,16,07,37,13.30
2018,08,16,07,38,13.30
2018,08,16,07,39,13.30
2018,08,16,07,40,13.40
2018,08,16,07,41,13.40
2018,08,16,07,42,13.40
2018,08,16,07,43,13.50
2018,08,16,07,44,13.50
2018,08,16,07,45,13.60
2018,08,16,07,46,13.70
2018,08,16,07,47,13.70
2018,08,16,07,48,13.80
2018,08,16,07,49,13.80
2018,08,16,07,50,13.80
2018,08,16,07,51,13.90
2018,08,16,07,52,13.90
2018,08,16,07,53,13.90
2018,08,16,07,54,14.00
2018,08,16,07,55,14.00
2018,08,16,07,56,14.10
2018,08,16,07,57,14.10
2018,08,16,07,58,14.20
2018,08,16,07,59,14.30
2018,08,16,08,00,14.30
2018,08,16,08,01,14.40
2018,08,16,08,02,14.40
2018,08,16,08,03,14.50
2018,08,16,08,04,14.50
2018,08,16,08,05,14.60
2018,08,16,08,06,14.70
2018,08,16,08,07,14.80
2018,08,16,08,08,14.80
2018,08,16,08,09,14.90
2018,08,16,08,10,14.90
2018,08,16,08,11,15.00
2018,08,16,08,12,15.00
2018,08,16,08,13,15.00
2018,08,16,08,14,15.10
2018,08,16,08,15,15.20
2018,08,16,08,16,15.20
2018,08,16,08,17,15.30
2018,08,16,08,18,15.40
2018,08,16,08,19,15.40
2018,08,16,08,20,15.50
2018,08,16,08,21,15.50
2018,08,16,08,22,15.60
2018,08,16,08,23,15.70
2018,08,16,08,24,15.70
2018,08,16,08,25,15.80
2018,08,16,08,26,15.80
2018,08,16,08,27,15.80
2018,08,16,08,28,15.80
2018,08,16,08,29,15.80
2018,08,16,08,30,15.80
2018,08,16,08,31,15.90
2018,08,16,08,32,15.90
2018,08,16,08,33,15.90
2018,08,16,08,34,16.00
2018,08,16,08,35,16.00
2018,08,16,08,36,16.10
2018,08,16,08,37,16.20
2018,08,16,08,38,16.20
2018,08,16,08,39,16.30
2018,08,16,08,40,16.40
2018,08,16,08,41,16.50
2018,08,16,08,42,16.60
2018,08,16,08,43,16.70
2018,08,16,08,44,16.80
2018,08,16,08,45,16.90
2018,08,16,08,46,17.00
2018,08,16,08,47,17.00
2018,08,16,08,48,17.10
2018,08,16,08,49,17.10
2018,08,16,08,50,17.20
2018,08,16,08,51,17.20
2018,08,16,08,52,17.20
2018,08,16,08,53,17.20
2018,08,16,08,54,17.30
2018,08,16,08,55,17.30
2018,08,16,08,56,17.40
2018,08,16,08,57,17.50
2018,08,16,08,58,17.60
2018,08,16,08,59,17.60
2018,08,16,09,00,17.70
2018,08,16,09,01,17.80
2018,08,16,09,02,17.90
2018,08,16,09,03,17.90
2018,08,16,09,04,17.90
2018,08,16,09,05,18.00
2018,08,16,09,06,18.10
2018,08,16,09,07,18.10
2018,08,16,09,08,18.10
2018,08,16,09,09,18.10
2018,08,16,09,10,18.20
2018,08,16,09,11,18.20
2018,08,16,09,12,18.20
2018,08,16,09,13,18.20
2018,08,16,09,14,18.20
2018,08,16,09,15,18.20
2018,08,16,09,16,18.20
2018,08,16,09,17,18.20
2018,08,16,09,18,18.20
2018,08,16,09,19,18.20
2018,08,16,09,20,18.20
2018,08,16,09,21,18.30
2018,08,16,09,22,18.30
2018,08,16,09,23,18.30
2018,08,16,09,24,18.30
2018,08,16,09,25,18.30
2018,08,16,09,26,18.20
2018,08,16,09,27,18.20
2018,08,16,09,28,18.30
2018,08,16,09,29,18.30
2018,08,16,09,30,18.30
2018,08,16,09,31,18.30
2018,08,16,09,32,18.30
2018,08,16,09,33,18.40
2018,08,16,09,34,18.40
2018,08,16,09,35,18.50
2018,08,16,09,36,18.50
2018,08,16,09,37,18.50
2018,08,16,09,38,18.50
2018,08,16,09,39,18.60
2018,08,16,09,40,18.50
2018,08,16,09,41,18.50
2018,08,16,09,42,18.50
2018,08,16,09,43,18.60
2018,08,16,09,44,18.60
2018,08,16,09,45,18.70
2018,08,16,09,46,18.70
2018,08,16,09,47,18.80
2018,08,16,09,48,18.90
2018,08,16,09,49,18.90
2018,08,16,09,50,19.00
2018,08,16,09,51,19.00
2018,08,16,09,52,19.10
2018,08,16,09,53,19.10
2018,08,16,09,54,19.10
2018,08,16,09,55,19.20
2018,08,16,09,56,19.30
2018,08,16,09,57,19.30
2018,08,16,09,58,19.30
2018,08,16,09,59,19.20
2018,08,16,10,00,19.20
2018,08,16,10,01,19.20
2018,08,16,10,02,19.20
2018,08,16,10,03,19.10
2018,08,16,10,04,19.10
2018,08,16,10,05,19.20
2018,08,16,10,06,19.20
2018,08,16,10,07,19.30
2018,08,16,10,08,19.40
2018,08,16,10,09,19.40
2018,08,16,10,10,19.50
2018,08,16,10,11,19.60
2018,08,16,10,12,19.60
2018,08,16,10,13,19.70
2018,08,16,10,14,19.70
2018,08,16,10,15,19.70
2018,08,16,10,16,19.70
2018,08,16,10,17,19.80
2018,08,16,10,18,19.80
2018,08,16,10,19,19.80
2018,08,16,10,20,19.90
2018,08,16,10,21,20.00
2018,08,16,10,22,20.00
2018,08,16,10,23,20.10
2018,08,16,10,24,20.20
2018,08,16,10,25,20.30
2018,08,16,10,26,20.40
2018,08,16,10,27,20.40
2018,08,16,10,28,20.50
2018,08,16,10,29,20.60
2018,08,16,10,30,20.80
2018,08,16,10,31,20.90
2018,08,16,10,32,21.00
2018,08,16,10,33,21.10
2018,08,16,10,34,21.10
2018,08,16,10,35,21.10
2018,08,16,10,36,21.20
2018,08,16,10,37,21.10
2018,08,16,10,38,21.10
2018,08,16,10,39,21.10
2018,08,16,10,40,21.10
2018,08,16,10,41,21.10
2018,08,16,10,42,21.10
2018,08,16,10,43,21.10
2018,08,16,10,44,21.20
2018,08,16,10,45,21.20
2018,08,16,10,46,21.30
2018,08,16,10,47,21.40
2018,08,16,10,48,21.50
2018,08,16,10,49,21.60
2018,08,16,10,50,21.70
2018,08,16,10,51,21.70
2018,08,16,10,52,21.60
2018,08,16,10,53,21.50
2018,08,16,10,54,21.40
2018,08,16,10,55,21.30
2018,08,16,10,56,21.20
2018,08,16,10,57,21.10
2018,08,16,10,58,20.90
2018,08,16,10,59,20.80
2018,08,16,11,00,20.80
2018,08,16,11,01,20.70
2018,08,16,11,02,20.60
2018,08,16,11,03,20.60
2018,08,16,11,04,20.70
2018,08,16,11,05,20.80
2018,08,16,11,06,21.00
2018,08,16,11,07,21.10
2018,08,16,11,08,21.10
2018,08,16,11,09,21.10
2018,08,16,11,10,21.20
2018,08,16,11,11,21.20
2018,08,16,11,12,21.30
2018,08,16,11,13,21.30
2018,08,16,11,14,21.30
2018,08,16,11,15,21.30
2018,08,16,11,16,21.20
2018,08,16,11,17,21.20
2018,08,16,11,18,21.30
2018,08,16,11,19,21.40
2018,08,16,11,20,21.40
2018,08,16,11,21,21.30
2018,08,16,11,22,21.30
2018,08,16,11,23,21.20
2018,08,16,11,24,21.30
2018,08,16,11,25,21.30
2018,08,16,11,26,21.30
2018,08,16,11,27,21.20
2018,08,16,11,28,21.20
2018,08,16,11,29,21.10
2018,08,16,11,30,21.10
2018,08,16,11,31,21.00
2018,08,16,11,32,20.90
2018,08,16,11,33,21.00
2018,08,16,11,34,21.10
2018,08,16,11,35,21.20
2018,08,16,11,36,21.30
2018,08,16,11,37,21.30
2018,08,16,11,38,21.30
2018,08,16,11,39,21.30
2018,08,16,11,40,21.30
2018,08,16,11,41,21.40
2018,08,16,11,42,21.40
2018,08,16,11,43,21.40
2018,08,16,11,44,21.30
2018,08,16,11,45,21.30
2018,08,16,11,46,21.30
2018,08,16,11,47,21.30
2018,08,16,11,48,21.30
2018,08,16,11,49,21.30
2018,08,16,11,50,21.30
2018,08,16,11,51,21.30
2018,08,16,11,52,21.10
2018,08,16,11,53,20.90
2018,08,16,11,54,20.90
2018,08,16,11,55,20.80
2018,08,16,11,56,20.80
2018,08,16,11,57,20.70
2018,08,16,11,58,20.70
2018,08,16,11,59,20.70
2018,08,16,12,00,20.70
2018,08,16,12,01,20.70
2018,08,16,12,02,20.80
2018,08,16,12,03,20.80
2018,08,16,12,04,20.80
2018,08,16,12,05,20.80
2018,08,16,12,06,20.90
2018,08,16,12,07,20.90
2018,08,16,12,08,20.90
2018,08,16,12,09,20.80
2018,08,16,12,10,20.90
2018,08,16,12,11,21.00
2018,08,16,12,12,21.10
2018,08,16,12,13,21.10
2018,08,16,12,14,21.10
2018,08,16,12,15,21.10
2018,08,16,12,16,21.00
2018,08,16,12,17,21.00
2018,08,16,12,18,21.00
2018,08,16,12,19,20.90
2018,08,16,12,20,20.90
2018,08,16,12,21,20.90
2018,08,16,12,22,20.90
2018,08,16,12,23,20.90
2018,08,16,12,24,20.90
2018,08,16,12,25,20.90
2018,08,16,12,26,20.90
2018,08,16,12,27,20.90
2018,08,16,12,28,20.90
2018,08,16,12,29,20.90
2018,08,16,12,30,20.90
2018,08,16,12,31,20.80
2018,08,16,12,32,20.80
2018,08,16,12,33,20.80
2018,08,16,12,34,20.80
2018,08,16,12,35,20.70
2018,08,16,12,36,20.70
2018,08,16,12,37,20.80
2018,08,16,12,38,20.80
2018,08,16,12,39,20.80
2018,08,16,12,40,20.80
2018,08,16,12,41,20.80
2018,08,16,12,42,20.80
2018,08,16,12,43,20.90
2018,08,16,12,44,20.90
2018,08,16,12,45,21.00
2018,08,16,12,46,21.00
2018,08,16,12,47,21.00
2018,08,16,12,48,21.00
2018,08,16,12,49,21.00
2018,08,16,12,50,21.00
2018,08,16,12,51,20.90
2018,08,16,12,52,20.80
2018,08,16,12,53,20.80
2018,08,16,12,54,20.70
2018,08,16,12,55,20.60
2018,08,16,12,56,20.70
2018,08,16,12,57,20.70
2018,08,16,12,58,20.80
2018,08,16,12,59,20.80
2018,08,16,13,00,20.80
2018,08,16,13,01,20.70
2018,08,16,13,02,20.60
2018,08,16,13,03,20.50
2018,08,16,13,04,20.40
2018,08,16,13,05,20.20
2018,08,16,13,06,20.00
2018,08,16,13,07,19.90
2018,08,16,13,08,19.80
2018,08,16,13,09,19.80
2018,08,16,13,10,19.80
2018,08,16,13,11,19.80
2018,08,16,13,12,19.80
2018,08,16,13,13,19.80
2018,08,16,13,14,19.80
2018,08,16,13,15,19.80
2018,08,16,13,16,19.80
2018,08,16,13,17,19.80
2018,08,16,13,18,19.90
2018,08,16,13,19,19.90
2018,08,16,13,20,20.00
2018,08,16,13,21,20.00
2018,08,16,13,22,20.10
2018,08,16,13,23,20.00
2018,08,16,13,24,20.00
2018,08,16,13,25,20.00
2018,08,16,13,26,20.00
2018,08,16,13,27,20.00
2018,08,16,13,28,20.00
2018,08,16,13,29,20.10
2018,08,16,13,30,20.10
2018,08,16,13,31,20.20
2018,08,16,13,32,20.20
2018,08,16,13,33,20.20
2018,08,16,13,34,20.30
2018,08,16,13,35,20.30
2018,08,16,13,36,20.40
2018,08,16,13,37,20.40
2018,08,16,13,38,20.30
2018,08,16,13,39,20.30
2018,08,16,13,40,20.30
2018,08,16,13,41,20.30
2018,08,16,13,42,20.40
2018,08,16,13,43,20.40
2018,08,16,13,44,20.40
2018,08,16,13,45,20.40
2018,08,16,13,46,20.40
2018,08,16,13,47,20.40
2018,08,16,13,48,20.30
2018,08,16,13,49,20.30
2018,08,16,13,50,20.30
2018,08,16,13,51,20.30
2018,08,16,13,52,20.40
2018,08,16,13,53,20.50
2018,08,16,13,54,20.70
2018,08,16,13,55,20.80
2018,08,16,13,56,20.80
2018,08,16,13,57,20.80
2018,08,16,13,58,20.80
2018,08,16,13,59,20.80
2018,08,16,14,00,20.80
2018,08,16,14,01,20.80
2018,08,16,14,02,20.80
2018,08,16,14,03,20.80
2018,08,16,14,04,20.70
2018,08,16,14,05,20.60
2018,08,16,14,06,20.40
2018,08,16,14,07,20.40
2018,08,16,14,08,20.30
2018,08,16,14,09,20.30
2018,08,16,14,10,20.30
2018,08,16,14,11,20.30
2018,08,16,14,12,20.20
2018,08,16,14,13,20.00
2018,08,16,14,14,19.90
2018,08,16,14,15,19.80
2018,08,16,14,16,19.80
2018,08,16,14,17,19.70
2018,08,16,14,18,19.60
2018,08,16,14,19,19.60
2018,08,16,14,20,19.70
2018,08,16,14,21,19.70
2018,08,16,14,22,19.80
2018,08,16,14,23,19.80
2018,08,16,14,24,19.70
2018,08,16,14,25,19.60
2018,08,16,14,26,19.50
2018,08,16,14,27,19.60
2018,08,16,14,28,19.60
2018,08,16,14,29,19.60
2018,08,16,14,30,19.60
2018,08,16,14,31,19.60
2018,08,16,14,32,19.70
2018,08,16,14,33,19.70
2018,08,16,14,34,19.70
2018,08,16,14,35,19.70
2018,08,16,14,36,19.60
2018,08,16,14,37,19.70
2018,08,16,14,38,19.70
2018,08,16,14,39,19.70
2018,08,16,14,40,19.70
2018,08,16,14,41,19.70
2018,08,16,14,42,19.70
2018,08,16,14,43,19.80
2018,08,16,14,44,19.80
2018,08,16,14,45,19.80
2018,08,16,14,46,19.80
2018,08,16,14,47,19.70
2018,08,16,14,48,19.70
2018,08,16,14,49,19.70
2018,08,16,14,50,19.70
2018,08,16,14,51,19.70
2018,08,16,14,52,19.70
2018,08,16,14,53,19.70
2018,08,16,14,54,19.70
2018,08,16,14,55,19.70
2018,08,16,14,56,19.70
2018,08,16,14,57,19.60
2018,08,16,14,58,19.50
2018,08,16,14,59,19.40
2018,08,16,15,00,19.30
2018,08,16,15,01,19.20
2018,08,16,15,02,19.20
2018,08,16,15,03,19.30
2018,08,16,15,04,19.40
2018,08,16,15,05,19.50
2018,08,16,15,06,19.50
2018,08,16,15,07,19.50
2018,08,16,15,08,19.50
2018,08,16,15,09,19.50
2018,08,16,15,10,19.50
2018,08,16,15,11,19.40
2018,08,16,15,12,19.40
2018,08,16,15,13,19.30
2018,08,16,15,14,19.20
2018,08,16,15,15,19.20
2018,08,16,15,16,19.10
2018,08,16,15,17,19.10
2018,08,16,15,18,19.00
2018,08,16,15,19,18.90
2018,08,16,15,20,18.90
2018,08,16,15,21,18.90
2018,08,16,15,22,18.90
2018,08,16,15,23,18.90
2018,08,16,15,24,18.90
2018,08,16,15,25,18.90
2018,08,16,15,26,18.90
2018,08,16,15,27,19.00
2018,08,16,15,28,19.40
2018,08,16,15,29,19.50
2018,08,16,15,30,19.60
2018,08,16,15,31,19.80
2018,08,16,15,32,19.90
2018,08,16,15,33,20.00
2018,08,16,15,34,20.20
2018,08,16,15,35,20.30
2018,08,16,15,36,20.50
2018,08,16,15,37,20.60
2018,08,16,15,38,20.80
2018,08,16,15,39,20.90
2018,08,16,15,40,20.90
2018,08,16,15,41,20.90
2018,08,16,15,42,21.00
2018,08,16,15,43,21.00
2018,08,16,15,44,21.00
2018,08,16,15,45,20.90
2018,08,16,15,46,20.90
2018,08,16,15,47,21.00
2018,08,16,15,48,21.10
2018,08,16,15,49,21.20
2018,08,16,15,50,21.30
2018,08,16,15,51,21.30
2018,08,16,15,52,21.30
2018,08,16,15,53,21.30
2018,08,16,15,54,21.30
2018,08,16,15,55,21.30
2018,08,16,15,56,21.30
2018,08,16,15,57,21.20
2018,08,16,15,58,20.90
2018,08,16,15,59,20.60
2018,08,16,16,00,20.30
2018,08,16,16,01,20.10
2018,08,16,16,02,19.80
2018,08,16,16,03,19.70
2018,08,16,16,04,19.50
2018,08,16,16,05,19.50
2018,08,16,16,06,19.50
2018,08,16,16,07,19.50
2018,08,16,16,08,19.50
2018,08,16,16,09,19.50
2018,08,16,16,10,19.50
2018,08,16,16,11,19.60
2018,08,16,16,12,19.70
2018,08,16,16,13,19.80
2018,08,16,16,14,19.90
2018,08,16,16,15,20.00
2018,08,16,16,16,20.10
2018,08,16,16,17,20.10
2018,08,16,16,18,20.10
2018,08,16,16,19,20.20
2018,08,16,16,20,20.20
2018,08,16,16,21,20.30
2018,08,16,16,22,20.40
2018,08,16,16,23,20.50
2018,08,16,16,24,20.50
2018,08,16,16,25,20.60
2018,08,16,16,26,20.70
2018,08,16,16,27,20.70
2018,08,16,16,28,20.70
2018,08,16,16,29,20.80
2018,08,16,16,30,20.80
2018,08,16,16,31,20.80
2018,08,16,16,32,20.80
2018,08,16,16,33,20.80
2018,08,16,16,34,20.90
2018,08,16,16,35,20.80
2018,08,16,16,36,20.80
2018,08,16,16,37,20.80
2018,08,16,16,38,20.90
2018,08,16,16,39,20.90
2018,08,16,16,40,20.90
2018,08,16,16,41,20.80
2018,08,16,16,42,20.70
2018,08,16,16,43,20.60
2018,08,16,16,44,20.60
2018,08,16,16,45,20.40
2018,08,16,16,46,20.40
2018,08,16,16,47,20.40
2018,08,16,16,48,20.40
2018,08,16,16,49,20.30
2018,08,16,16,50,20.30
2018,08,16,16,51,20.30
2018,08,16,16,52,20.30
2018,08,16,16,53,20.30
2018,08,16,16,54,20.30
2018,08,16,16,55,20.30
2018,08,16,16,56,20.30
2018,08,16,16,57,20.20
2018,08,16,16,58,20.10
2018,08,16,16,59,19.90
2018,08,16,17,00,19.80
2018,08,16,17,01,19.70
2018,08,16,17,02,19.60
2018,08,16,17,03,19.50
2018,08,16,17,04,19.40
2018,08,16,17,05,19.30
2018,08,16,17,06,19.30
2018,08,16,17,07,19.30
2018,08,16,17,08,19.30
2018,08,16,17,09,19.40
2018,08,16,17,10,19.40
2018,08,16,17,11,19.50
2018,08,16,17,12,19.60
2018,08,16,17,13,19.70
2018,08,16,17,14,19.70
2018,08,16,17,15,19.70
2018,08,16,17,16,19.70
2018,08,16,17,17,19.80
2018,08,16,17,18,19.80
2018,08,16,17,19,19.80